Theta_e
280 280 280 280 280 281 281 281 282 283 283 283 283 283 283 283 282 282 283 283 284 285 285 286 286 287 288 289 289 290 291 293 295 297 297 300 302 303
278 278 279 279 279 280 280 281 281 281 282 282 282 282 282 282 282 282 282 283 283 284 284 285 286 286 287 288 288 289 290 291 292 293 295 296 297 298
277 278 278 278 278 278 279 279 280 280 281 281 281 281 281 281 281 282 282 282 282 283 284 285 285 286 286 287 288 288 289 289 290 291 293 294 297 299
276 277 277 277 277 278 278 278 279 279 280 280 280 280 281 281 282 282 282 282 283 283 284 285 285 285 285 286 286 287 288 288 289 290 293 294 295 296
275 276 276 276 277 277 277 278 278 279 279 280 280 280 281 281 282 282 282 282 282 283 283 283 284 284 285 285 285 286 286 287 289 289 289 291 291 291
275 275 275 276 276 276 277 277 278 278 279 279 280 281 281 281 282 282 282 282 283 282 282 282 283 283 284 284 285 285 286 286 286 287 287 288 288 289
275 275 276 276 277 278 278 278 278 278 279 280 281 281 281 281 282 283 282 282 282 282 282 282 283 283 283 284 284 284 284 285 286 287 287 287 288 289
275 275 276 276 277 278 278 279 280 280 280 281 280 280 281 280 280 280 280 281 282 282 282 282 282 283 283 284 284 284 285 285 285 286 286 287 287 288
275 275 275 276 276 277 277 278 279 279 280 280 279 279 279 279 279 280 280 280 281 281 282 282 282 283 283 284 284 285 285 285 286 286 286 286 287 288
274 274 275 275 276 276 277 277 277 277 277 277 277 278 278 279 279 279 280 280 281 281 282 283 283 283 283 284 284 284 284 284 285 285 286 286 287 287
273 273 274 274 275 276 276 277 277 277 277 277 278 279 279 280 281 281 281 282 281 281 281 282 282 282 282 282 282 282 283 283 284 285 285 285 286 286
273 272 273 274 274 275 276 276 277 277 277 278 278 279 279 278 279 279 280 280 281 281 281 282 281 281 281 281 281 281 282 282 283 284 284 285 286 286
272 272 273 273 275 276 277 277 278 278 278 278 279 278 279 279 279 280 280 281 281 281 280 280 280 280 281 281 280 280 281 281 282 282 283 283 284 284
272 272 273 273 274 275 276 277 277 278 278 278 278 279 279 279 279 279 279 279 279 279 279 279 280 280 280 280 280 280 280 281 281 281 282 282 283 284
273 273 273 274 275 276 277 277 278 278 278 278 278 278 278 278 278 278 278 278 278 278 279 279 279 279 280 280 280 280 280 280 280 281 281 282 282 282
271 272 273 274 275 276 276 276 276 276 277 277 276 276 276 276 277 277 277 278 278 278 278 278 279 279 279 279 279 279 279 280 280 280 281 281 281 282
271 272 272 273 273 273 275 275 276 275 275 275 275 275 275 276 276 277 277 277 277 277 278 278 278 278 279 279 279 279 279 279 279 280 280 280 281 281
274 274 275 275 275 275 275 274 273 273 273 273 273 274 275 276 276 276 276 276 276 277 277 277 277 278 278 278 279 279 279 279 279 279 280 280 280 280
275 275 273 273 273 272 272 272 271 271 271 272 273 274 274 274 275 275 275 275 276 276 276 277 277 277 278 278 278 278 279 279 280 280 280 280 280 280
273 272 272 271 270 270 270 270 270 270 270 271 272 272 273 273 274 274 274 274 274 275 275 275 276 276 277 277 277 277 278 279 279 279 280 280 280 280
271 271 270 270 269 269 269 269 269 269 269 269 270 271 272 273 273 273 273 274 275 275 275 276 276 276 277 277 278 278 278 278 278 279 279 279 279 280
270 270 269 269 268 268 268 268 268 268 268 268 270 270 271 271 272 272 273 273 273 274 274 274 274 275 275 276 276 276 277 277 277 278 279 279 279 279
269 269 268 268 268 268 267 267 267 267 267 268 268 269 270 270 271 271 272 273 273 273 273 273 274 274 274 275 276 276 276 276 277 277 278 278 279 279
Wind_Speed
13 13 14 14 15 15 16 16 16 9 9 16 18 16 18 21 21 22 22 22 24 24 23 24 25 26 26 26 26 26 26 26 24 23 25 26 27 25
14 15 16 16 16 17 18 18 19 20 11 18 20 21 21 22 23 24 24 24 22 23 23 24 25 26 27 28 28 26 26 25 26 28 26 26 28 27
16 17 18 18 18 19 19 20 21 21 21 21 22 20 23 24 24 23 24 26 25 23 24 25 26 26 27 28 28 28 28 28 29 29 29 27 25 24
18 19 20 19 20 21 21 22 22 23 23 22 22 22 23 22 23 26 25 24 25 27 26 26 25 27 28 29 31 32 31 31 30 28 26 24 22 24
19 20 20 20 21 21 22 22 22 23 22 23 23 22 24 24 24 25 24 25 27 25 25 28 29 30 28 29 30 30 30 29 27 26 28 28 30 32
20 21 21 21 22 22 22 23 23 24 23 24 23 23 24 23 23 25 26 22 22 26 30 31 30 31 30 29 29 27 26 28 29 29 29 30 30 31
22 23 23 24 25 26 26 25 25 26 26 26 25 21 23 24 23 21 24 26 26 28 28 28 30 29 30 31 29 29 29 29 30 31 33 33 33 34
25 26 26 27 28 29 31 32 33 30 29 21 25 25 25 25 26 25 26 26 20 24 27 29 29 34 32 29 31 32 33 32 33 34 34 35 35 34
26 27 27 27 28 27 28 30 30 30 32 30 28 29 29 31 28 28 28 27 29 28 29 33 32 32 36 34 32 32 33 35 35 35 36 36 36 36
27 28 29 30 29 29 29 29 30 29 29 29 32 33 33 33 31 32 33 34 36 34 32 29 33 33 33 32 34 36 37 38 40 40 39 38 39 40
28 28 29 30 31 31 32 29 29 31 33 34 36 37 38 39 39 38 32 27 25 29 31 32 31 30 32 31 34 36 37 38 39 39 40 40 41 41
27 30 32 33 34 34 34 33 32 34 33 32 32 33 32 36 37 36 33 29 29 27 28 25 26 27 25 33 36 34 33 34 36 38 38 38 37 37
28 28 29 31 32 33 33 32 31 30 32 33 32 33 33 32 33 33 32 30 27 25 29 32 28 28 27 30 37 39 32 35 33 35 37 38 40 40
31 31 32 33 33 34 34 34 34 35 33 30 31 29 25 26 25 24 24 27 30 32 35 36 32 29 29 29 28 38 34 34 33 34 36 38 39 39
31 32 35 36 36 37 36 34 34 31 27 23 24 23 22 23 25 28 30 32 34 37 37 38 33 34 32 31 32 35 36 35 32 34 35 35 35 36
28 30 32 33 34 33 32 27 23 23 22 20 21 24 27 28 28 28 28 29 30 33 35 35 33 34 35 35 35 38 33 35 32 34 34 35 36 37
25 27 27 27 27 27 25 24 18 17 19 22 25 27 29 29 29 27 28 30 29 31 33 33 33 35 39 39 36 37 38 38 38 36 33 36 38 38
31 28 26 28 26 22 16 15 17 20 23 26 29 30 28 26 27 29 29 29 30 32 32 33 33 33 35 39 40 39 40 39 38 39 37 34 38 40
27 21 7 4 6 10 14 16 19 22 24 25 26 26 27 28 30 28 29 29 30 32 33 33 32 29 15 18 39 37 39 39 35 36 36 36 38 43
19 7 6 7 11 13 15 18 20 22 23 25 26 27 28 28 27 29 30 30 31 33 33 34 32 32 21 23 23 40 38 40 36 36 35 37 45 49
8 9 9 12 15 17 18 20 22 24 26 27 28 28 29 28 30 32 33 38 40 35 30 33 38 42 44 43 30 32 41 46 51 47 43 38 36 35
13 13 13 16 17 19 22 22 24 26 27 28 29 30 31 31 32 34 35 35 36 36 37 41 42 40 38 34 21 35 40 43 45 49 52 54 36 19
14 15 18 19 20 21 23 24 26 28 29 30 31 32 32 33 35 37 39 40 39 39 39 39 40 39 40 39 41 36 41 42 41 40 44 48 56 60
Wind_Direction
275 275 273 272 270 268 266 267 275 286 281 288 292 289 294 300 301 305 308 310 311 313 313 314 315 315 314 313 311 309 308 306 303 299 298 300 300 303
280 279 277 275 274 271 267 266 265 270 278 276 281 286 289 291 295 299 303 304 307 308 309 309 310 309 310 309 307 305 305 302 300 299 299 296 293 295
278 277 276 275 275 273 271 268 266 265 271 277 277 282 285 288 291 294 297 301 303 304 306 306 306 305 306 305 304 303 301 299 299 298 296 295 299 296
277 277 275 275 273 271 269 266 266 267 272 279 281 282 279 282 288 289 291 291 294 301 303 304 303 302 302 299 298 298 298 296 294 294 294 288 289 292
275 274 274 274 273 271 270 270 269 270 272 276 280 279 277 278 281 279 286 286 293 292 297 300 300 299 298 297 296 296 294 293 292 288 289 287 288 289
274 273 273 271 270 272 272 271 271 270 269 270 275 280 279 278 281 287 282 291 288 293 292 294 295 295 296 295 292 290 290 291 290 289 289 287 287 288
276 275 273 269 267 265 262 261 263 267 269 268 267 278 283 280 273 281 294 287 287 288 287 288 291 291 290 293 290 287 287 286 286 286 287 287 287 284
278 277 275 274 274 272 270 269 264 260 257 264 275 270 275 282 286 288 288 284 282 283 283 285 287 289 289 285 287 288 287 284 284 284 284 284 283 283
275 276 278 275 274 275 274 273 273 271 271 274 277 275 278 276 278 279 278 279 280 286 289 285 285 282 284 285 285 285 286 289 284 281 282 282 280 278
272 272 272 273 271 271 271 272 271 270 269 269 268 269 269 273 272 272 275 277 280 280 279 276 283 281 284 283 284 284 286 286 283 281 279 278 279 279
271 272 273 273 272 271 271 272 273 273 270 270 271 273 273 273 275 276 274 275 280 280 279 278 282 282 283 286 286 289 288 285 283 281 279 278 277 277
273 275 272 270 269 268 266 266 264 264 267 268 270 273 276 279 276 278 282 277 280 278 274 273 283 287 289 287 289 288 286 285 284 282 280 278 276 276
269 271 270 270 270 269 268 265 262 266 267 273 274 275 273 272 273 271 268 268 272 274 278 280 283 285 282 286 286 284 284 282 280 279 278 275 273 272
266 267 268 271 271 270 270 270 268 272 273 274 274 274 274 277 276 276 274 276 275 274 277 278 278 277 277 278 277 285 280 277 275 275 275 275 274 271
267 267 269 270 269 269 271 272 275 276 276 277 279 276 278 283 287 286 283 281 277 274 273 273 270 271 268 269 274 276 282 278 275 272 272 271 272 271
268 269 270 270 268 266 270 271 275 276 274 272 281 285 289 287 282 279 279 280 278 277 276 273 269 265 266 264 266 271 272 274 275 270 269 270 268 265
263 262 262 261 262 265 270 272 271 278 285 287 284 282 281 281 278 279 278 279 276 277 278 276 271 266 263 264 265 267 271 268 270 269 269 268 267 264
266 265 262 262 255 245 252 272 280 282 280 279 276 274 273 277 281 281 279 277 275 275 274 275 273 272 270 266 259 265 265 264 266 266 262 262 266 264
272 275 235 246 258 265 270 274 276 276 278 276 275 275 276 275 277 277 277 276 276 274 272 272 270 267 269 269 272 261 262 265 265 262 259 255 259 263
272 229 241 250 259 262 267 274 279 280 277 274 271 270 270 271 274 273 274 274 276 276 275 271 266 263 260 264 272 271 264 265 264 263 261 260 257 262
269 264 256 266 266 271 280 284 281 278 277 274 269 268 269 270 272 272 273 276 279 278 275 272 267 268 268 271 268 266 264 258 254 256 260 260 261 263
262 261 266 268 275 284 286 282 279 277 275 271 269 268 268 269 270 272 273 273 274 272 270 271 273 271 266 261 264 267 268 267 263 260 256 252 252 254
259 269 273 274 276 278 279 277 275 274 272 270 270 270 271 272 272 272 273 274 273 272 271 271 269 266 262 261 263 267 266 265 263 260 257 255 256 260